Wind_Speed
23 24 24 23 23 23 24 25 25 26 26 26 27 28 29 31 28 24 23 24 26 29 32 32 33 33 32 32 29 26 25 24 23 20 20 20 18 19 22 21 19 17 17 18 17 11 2 2 4 6 12 16 15 14 17 24 27 28 26 24 22 20 16
22 23 23 23 24 24 25 26 27 27 26 26 27 28 31 31 27 24 24 27 29 30 31 32 33 33 33 31 28 26 25 25 23 21 21 21 20 20 21 20 19 18 16 18 20 17 9 5 3 2 4 9 12 13 19 25 26 28 27 25 25 21 17
22 22 24 25 25 26 27 27 28 28 27 27 27 29 32 29 23 23 27 30 32 32 33 34 34 34 32 30 27 25 25 26 25 22 21 21 21 21 21 20 18 16 13 11 12 14 11 8 5 4 5 7 7 11 20 24 25 28 28 27 25 20 17
23 23 24 25 26 26 27 27 28 28 28 27 27 31 31 24 20 25 30 33 34 35 36 36 34 33 32 30 28 26 26 27 26 25 24 23 23 22 22 21 18 17 14 10 12 13 9 5 5 6 7 10 10 12 18 22 25 30 28 26 23 19 15
23 23 24 24 25 26 26 27 27 29 29 27 29 32 27 22 24 29 32 34 36 36 36 36 35 33 32 30 29 28 28 28 27 26 26 25 25 24 23 23 22 21 18 16 17 16 12 9 7 5 7 12 10 11 19 22 23 27 26 22 21 18 15
22 22 23 24 25 25 26 26 27 28 28 28 30 29 23 23 28 31 33 35 36 37 37 37 36 34 33 31 29 29 28 28 28 28 28 27 26 25 24 24 23 21 18 16 15 13 14 13 10 6 8 13 9 10 20 21 18 20 19 20 21 17 15
22 22 23 24 24 25 26 26 27 27 27 29 30 25 22 26 30 32 34 36 37 39 38 37 37 34 32 30 29 29 28 28 29 30 29 28 27 25 24 24 22 18 15 13 11 11 13 13 10 7 7 10 10 11 15 18 19 16 12 16 21 19 15
22 21 22 24 24 25 26 26 26 26 26 29 27 22 22 28 31 33 35 36 38 40 39 38 37 34 32 30 29 29 29 29 31 31 31 30 28 24 22 20 17 14 13 11 10 12 13 14 13 14 13 8 7 9 9 12 15 13 14 17 18 19 17
22 22 23 24 24 25 26 26 25 24 25 28 25 19 23 29 31 34 35 36 39 40 39 39 36 33 32 31 31 31 30 31 32 32 32 30 26 20 17 15 12 11 11 9 9 11 12 13 14 19 23 16 9 7 7 9 8 8 18 20 15 16 18
22 23 24 24 23 24 25 25 24 23 25 28 23 18 24 30 31 34 35 37 39 40 40 39 35 32 33 33 32 30 31 33 33 34 33 30 25 19 14 12 10 10 8 5 5 8 7 8 11 17 24 24 20 11 6 8 7 6 16 19 14 16 18
22 23 24 23 23 24 25 23 24 25 28 28 22 18 24 31 32 34 36 37 40 40 40 38 34 33 34 34 32 30 31 33 33 33 34 33 29 24 18 16 16 15 11 8 5 2 0 4 8 13 19 23 24 18 10 8 7 10 16 16 15 20 22
22 23 23 22 23 24 23 23 25 27 28 27 20 18 26 31 32 34 36 38 40 40 40 38 35 35 36 35 33 32 32 34 33 33 34 34 31 28 24 23 23 21 16 12 10 9 5 3 3 7 17 21 19 19 18 12 6 11 18 16 16 24 25
23 24 23 22 22 23 23 24 25 26 27 25 19 19 27 30 31 34 36 38 40 39 39 37 35 35 36 34 33 33 34 34 34 34 34 33 30 28 26 26 27 26 20 15 12 10 8 6 4 4 18 26 20 18 22 16 7 7 14 19 23 26 24
24 24 22 21 23 24 24 25 25 24 25 24 18 19 26 29 31 35 36 38 39 38 39 38 35 36 37 35 34 33 34 34 34 34 33 31 29 27 26 26 28 30 26 20 16 13 9 7 7 11 21 28 22 20 24 20 11 8 11 19 27 27 23
24 23 22 23 24 25 26 27 26 24 25 24 18 19 25 29 32 35 37 38 39 39 39 38 35 35 37 37 35 34 34 34 33 33 33 31 30 28 26 25 26 29 28 26 24 18 12 8 11 16 22 25 21 18 22 23 18 12 12 17 25 27 23
24 23 24 25 25 26 26 27 27 26 25 24 20 19 24 29 32 35 37 38 40 40 40 37 35 35 36 36 35 33 33 34 32 31 31 31 30 29 28 26 26 26 27 28 29 24 17 12 13 17 22 24 21 17 22 26 24 18 15 17 23 27 25
24 23 24 25 26 27 28 28 27 26 25 25 23 21 22 28 32 36 37 38 40 41 40 38 36 35 35 34 33 32 32 33 32 30 30 30 30 29 28 26 26 28 28 30 31 27 21 16 14 18 23 24 22 20 23 27 27 25 20 17 20 25 25
24 24 24 25 26 28 29 29 28 27 25 25 26 23 22 27 32 35 35 36 39 41 40 40 39 36 33 32 32 32 33 32 31 31 31 31 30 30 28 27 27 29 31 31 31 28 24 19 16 19 23 24 22 22 24 27 28 29 26 21 19 21 22
24 23 24 25 27 28 29 29 28 28 26 25 26 26 24 25 30 33 33 35 39 41 41 41 40 36 33 31 31 33 33 32 31 30 31 32 32 31 30 29 29 30 30 30 28 28 25 20 18 20 22 23 21 23 26 27 27 28 27 23 20 20 20
23 23 24 26 28 28 29 29 28 28 27 26 26 27 26 25 27 30 33 35 39 41 42 43 41 37 33 31 31 32 32 32 31 30 31 33 34 32 30 31 31 31 30 28 26 26 24 21 19 20 21 22 21 23 26 27 26 26 24 21 19 19 19
23 23 24 26 27 28 27 28 28 28 28 26 25 27 28 26 26 28 31 36 40 41 43 44 42 38 34 31 31 31 31 31 32 31 31 32 34 34 32 32 32 32 31 27 23 23 22 20 21 21 21 23 23 23 24 23 23 23 22 20 18 18 17
24 24 26 27 27 27 27 28 28 28 28 27 25 26 28 28 28 27 29 34 39 41 43 42 39 37 35 32 31 30 30 30 30 31 31 32 34 35 34 34 34 35 33 27 20 19 21 21 21 22 22 23 24 23 21 20 20 21 20 18 17 16 14
24 25 27 28 27 27 27 27 28 27 27 27 26 26 27 28 29 28 28 32 38 41 42 40 38 36 34 31 30 30 29 29 29 30 31 31 33 34 35 35 36 38 37 29 21 18 22 22 20 20 21 22 21 20 19 17 17 18 18 16 16 16 13
24 25 26 27 27 27 27 27 27 26 27 27 26 26 28 29 30 29 28 29 34 39 41 39 37 36 33 31 30 29 29 29 29 29 30 30 30 33 35 36 37 39 39 33 24 19 20 22 20 18 19 20 19 16 15 15 14 14 15 15 15 16 16
24 25 25 26 26 26 27 27 26 26 27 26 26 27 28 29 30 30 29 28 30 36 40 38 36 34 32 31 30 29 28 29 29 29 29 30 31 32 34 37 37 38 40 36 28 21 19 19 19 19 17 15 13 11 11 12 12 12 13 15 15 16 16
25 25 25 26 26 26 26 27 26 26 26 26 27 28 29 30 30 30 30 30 30 34 39 38 35 34 32 31 30 30 29 28 29 30 30 30 32 32 34 37 38 38 38 37 30 24 21 19 19 19 18 16 12 9 8 10 12 13 14 16 17 15 14
25 25 25 26 26 26 26 26 26 25 26 27 28 28 29 30 30 30 29 30 31 34 39 38 36 34 34 32 30 30 29 28 29 31 32 31 32 33 34 36 38 37 36 35 32 27 23 21 20 21 22 23 20 15 10 9 11 13 13 14 15 14 13
25 24 25 26 26 26 26 26 25 25 26 27 27 28 28 29 30 29 29 31 32 34 38 39 37 35 34 33 31 30 30 29 29 31 33 33 32 33 34 36 37 37 35 33 31 28 26 23 21 21 21 23 23 22 20 16 12 13 13 12 13 14 14
25 24 25 25 26 27 26 25 24 24 25 27 27 28 28 28 29 29 30 31 33 34 37 39 38 35 34 33 33 31 30 29 29 30 34 36 35 33 34 35 36 36 35 32 29 26 26 25 23 23 22 20 20 21 22 22 19 17 16 14 15 15 14
25 24 25 25 25 26 25 24 23 23 24 26 26 26 26 27 28 30 31 32 32 34 37 40 39 36 34 33 33 32 31 30 28 29 32 35 37 35 32 32 34 35 34 33 29 25 24 24 25 24 23 21 19 18 18 18 18 18 18 17 16 15 14
25 24 24 24 23 23 23 23 22 21 23 25 25 24 25 27 28 31 32 32 32 33 36 39 39 38 35 33 32 32 31 30 29 29 30 33 36 36 33 32 33 34 34 33 29 26 24 24 25 24 23 21 20 18 16 14 13 13 14 15 15 15 14
27 26 25 24 23 23 23 22 21 21 22 25 25 25 26 28 29 31 32 33 33 34 35 38 39 38 36 33 32 32 31 30 29 29 29 31 34 36 36 35 34 34 34 32 30 28 26 26 27 26 24 22 22 20 16 13 10 9 9 11 12 13 14
27 28 28 27 25 25 24 22 22 22 23 25 26 26 27 28 30 31 32 34 35 35 35 37 39 38 37 34 32 31 31 30 27 26 28 30 32 34 36 36 35 34 34 33 32 29 28 29 29 28 26 24 22 19 16 13 11 8 7 8 10 12 13
26 27 28 29 28 27 26 25 24 23 24 26 27 28 28 28 29 31 32 33 35 36 36 37 39 39 37 34 32 31 31 29 25 24 27 30 30 32 34 34 34 33 33 33 32 31 30 29 30 30 29 25 21 18 16 13 10 8 7 8 10 10 10
23 25 26 28 29 28 27 26 26 25 26 28 28 28 28 28 29 31 32 34 34 35 37 39 40 40 37 34 32 32 31 28 25 24 27 30 30 30 31 32 32 32 33 34 33 32 31 30 31 32 30 26 22 19 18 16 12 8 6 6 9 10 10
21 23 24 26 28 28 27 27 27 28 28 29 29 28 28 29 30 31 33 34 35 35 36 39 41 40 38 35 33 31 30 29 28 27 28 28 28 27 28 30 32 33 33 34 34 34 33 32 33 33 32 30 26 22 21 22 21 17 13 9 8 9 11
20 22 23 24 26 28 27 27 28 29 30 30 29 28 28 28 29 30 31 32 34 34 35 37 40 40 38 35 33 32 30 29 29 28 27 27 27 26 26 28 32 34 34 35 35 35 35 35 36 35 34 33 31 28 27 27 28 27 25 21 16 11 11
Wind_Direction
28 26 27 28 27 26 26 24 24 23 24 23 19 18 18 17 20 30 32 24 17 13 9 7 2 359 356 353 352 352 350 346 343 335 326 329 331 326 326 324 319 310 295 282 265 250 238 219 233 210 194 182 175 180 182 180 178 176 175 170 165 163 160
30 30 29 27 26 25 25 24 22 22 23 21 19 18 17 20 28 33 29 22 17 13 9 6 2 358 355 352 351 350 347 345 345 340 328 325 324 322 323 319 315 313 303 289 269 248 229 218 213 188 171 160 154 156 161 165 168 171 170 164 162 161 155
29 30 28 26 25 24 24 23 21 22 22 20 20 18 18 27 37 31 23 20 16 12 9 6 2 359 355 352 352 349 346 345 344 341 332 326 323 319 318 315 310 308 304 293 271 247 224 219 214 169 163 162 143 145 153 153 155 161 159 156 156 154 151
29 29 27 25 23 23 22 21 20 21 22 22 20 18 23 35 37 24 19 17 14 11 8 5 2 359 356 354 354 351 348 345 342 338 333 330 326 320 316 313 307 302 296 283 272 256 224 208 202 170 168 168 149 144 155 152 150 153 153 153 154 152 149
31 30 28 25 23 22 20 19 20 21 23 23 20 19 29 38 29 21 17 14 13 11 8 5 3 0 358 357 355 350 347 345 342 338 333 330 326 319 314 312 308 304 294 283 281 261 225 208 206 181 157 161 147 131 144 143 143 149 152 155 155 151 145
33 33 32 28 26 24 22 20 21 21 22 20 18 23 34 33 25 21 18 15 13 10 8 6 4 2 1 359 355 351 349 347 344 339 332 328 324 316 312 311 308 306 296 287 289 266 230 221 216 194 152 152 138 123 137 137 132 137 149 157 155 149 141
34 35 33 31 29 28 25 25 25 24 23 19 20 29 36 28 23 21 18 15 12 10 8 6 3 3 2 0 357 354 352 349 345 342 336 330 324 317 312 310 306 305 298 286 283 268 247 233 212 173 140 138 130 129 136 135 132 130 143 157 154 148 137
37 37 36 34 33 32 30 30 30 28 25 23 27 35 33 26 22 19 17 15 12 10 8 5 4 4 5 4 1 359 356 352 348 346 341 336 330 323 318 315 310 307 301 286 276 272 262 246 215 168 144 132 125 131 129 131 137 142 148 149 150 149 135
39 39 38 38 37 35 34 34 33 32 28 26 31 38 31 25 23 20 17 14 11 9 7 6 5 7 9 7 3 2 360 354 352 350 346 344 344 341 336 332 324 316 309 291 272 273 269 251 221 175 156 150 143 136 132 136 138 151 154 146 141 148 137
41 41 40 40 38 37 37 37 34 32 27 24 32 39 30 26 24 21 17 14 12 10 8 7 9 12 13 9 5 3 359 356 356 355 353 356 3 8 9 3 353 347 346 334 279 272 272 246 218 188 171 162 154 145 139 150 145 156 163 151 140 148 143
43 43 42 40 40 40 39 37 33 30 27 27 36 40 30 26 24 20 18 15 12 11 9 9 12 15 15 13 10 6 2 360 359 359 0 5 12 18 25 26 19 16 20 26 27 21 290 209 205 200 189 172 158 151 144 145 144 155 163 155 148 154 149
46 45 43 41 42 42 39 34 32 31 31 35 44 41 30 26 23 20 19 16 13 12 11 11 14 16 15 13 10 8 5 2 359 359 3 10 16 19 23 25 22 18 22 35 45 51 69 130 162 192 184 170 156 147 139 130 132 159 162 155 152 154 150
48 45 43 43 43 41 36 32 31 32 33 39 46 39 29 26 24 22 21 17 15 13 12 13 16 17 15 13 10 9 6 2 1 360 3 11 19 21 22 24 23 20 23 36 47 49 58 77 62 120 155 150 138 132 133 127 113 139 154 154 153 152 149
45 41 42 46 44 40 38 35 33 34 36 40 44 36 28 27 26 23 21 18 16 14 14 16 19 18 16 14 13 9 5 4 3 0 1 9 16 18 21 23 24 24 25 33 44 47 53 79 93 101 125 134 132 131 135 132 121 110 130 147 151 152 151
41 41 46 47 43 41 40 38 38 38 39 41 43 35 28 28 27 23 22 20 18 16 17 19 20 19 16 16 15 10 6 5 4 1 2 7 11 15 18 21 25 27 27 32 40 44 49 85 124 117 117 125 128 137 144 138 127 117 122 139 148 153 159
43 46 48 45 42 42 40 39 39 41 42 42 42 36 29 28 27 24 23 22 19 18 20 22 22 20 18 19 16 9 7 7 5 4 4 7 9 12 17 20 23 27 29 32 37 41 49 77 123 125 116 118 119 133 151 145 134 127 126 139 151 157 166
46 48 47 45 45 43 40 40 41 43 44 42 40 37 30 28 27 25 24 23 20 20 22 23 23 21 20 20 15 8 7 9 7 6 7 9 11 13 16 20 22 26 31 32 31 33 44 64 95 107 108 112 113 124 142 143 139 137 133 139 158 165 169
48 49 49 48 46 43 42 43 44 44 45 42 39 37 31 27 26 26 25 23 21 23 26 24 22 21 21 21 18 12 10 9 8 10 12 13 15 15 16 20 22 24 30 32 26 24 34 55 79 95 105 111 112 119 132 138 138 140 141 146 161 171 174
50 51 51 49 46 44 44 45 45 45 43 41 40 38 33 27 25 26 26 23 22 25 28 26 23 22 21 22 20 15 13 11 9 12 16 17 19 19 17 18 20 21 26 31 26 19 25 46 73 94 107 114 116 121 131 138 141 142 145 150 159 172 182
53 54 53 50 47 46 45 45 45 43 43 44 41 37 35 29 25 26 25 23 23 26 28 27 24 23 23 23 20 15 13 13 12 13 17 20 21 22 21 20 20 19 22 30 27 18 23 47 74 95 109 117 123 129 136 141 143 141 140 144 155 171 183
57 58 55 51 49 47 47 46 45 44 45 46 41 37 36 34 30 27 25 24 24 26 28 27 23 21 22 24 22 17 15 15 14 14 18 21 21 22 23 23 22 20 22 33 33 20 28 58 81 95 111 122 130 137 141 142 141 138 136 140 155 171 182
60 58 53 52 52 50 48 47 46 46 46 45 41 37 36 34 31 28 25 24 24 26 28 25 21 20 23 25 22 19 18 19 18 15 17 20 20 20 23 24 24 24 27 39 45 32 39 65 85 95 109 127 136 138 138 137 139 139 138 142 158 171 177
60 56 54 54 54 52 49 48 47 45 45 44 42 38 35 32 31 29 25 23 24 27 27 23 21 25 28 28 24 20 20 21 20 17 17 19 19 19 22 24 27 29 31 39 50 46 47 60 78 94 108 120 126 129 134 136 138 142 143 149 161 167 167
61 58 57 57 55 52 49 48 47 46 45 44 41 37 35 33 31 30 27 23 23 26 26 23 24 27 29 31 29 24 22 22 22 20 19 20 20 19 21 24 28 31 30 35 47 52 49 55 66 82 104 114 109 109 124 136 145 151 149 151 162 166 167
62 60 60 58 55 52 49 48 48 46 45 42 38 35 33 32 31 30 29 26 24 24 24 23 25 26 27 32 34 29 27 25 23 22 22 24 25 22 22 25 29 31 31 35 46 53 47 49 59 69 87 108 110 105 114 133 155 167 162 156 159 164 167
62 62 62 60 56 53 51 49 47 46 43 39 36 34 32 31 31 30 29 29 27 24 22 23 26 26 27 33 36 33 31 29 26 25 24 27 30 26 24 27 29 31 33 36 42 49 49 48 55 63 70 83 100 115 125 141 160 170 171 165 160 159 161
62 63 63 60 57 54 51 50 48 47 44 39 37 35 33 31 31 30 29 29 28 25 22 23 25 26 28 34 37 35 34 33 31 29 27 29 33 29 26 30 32 32 33 35 37 42 47 50 56 60 63 69 76 84 93 122 154 164 167 166 160 156 155
63 65 64 61 58 54 52 51 49 48 45 42 39 37 35 33 31 31 29 29 29 27 24 23 26 26 26 32 36 37 36 35 34 33 31 31 35 34 29 32 37 36 34 36 37 41 45 49 54 58 58 63 68 70 72 81 108 137 148 151 146 140 136
65 67 65 62 58 53 50 49 49 50 48 45 41 38 36 35 33 31 31 30 30 28 25 25 26 26 26 30 34 36 37 36 34 35 35 34 37 37 31 32 38 39 37 36 37 42 49 51 54 57 56 58 62 66 70 76 89 106 118 122 122 122 120
65 68 66 63 59 52 49 50 52 53 50 46 42 38 36 37 36 34 33 31 30 28 27 26 27 27 27 29 33 34 34 35 33 33 36 38 39 39 34 32 37 41 41 39 37 40 49 54 54 54 53 54 58 61 67 76 88 100 109 115 117 114 111
64 70 68 64 60 55 53 55 57 58 54 49 45 41 39 40 39 37 35 33 31 30 28 28 29 30 29 30 33 33 32 33 33 31 34 38 40 41 38 35 39 42 41 41 42 43 49 54 53 50 48 49 51 51 55 64 78 93 105 112 112 105 96
67 71 69 66 63 60 59 61 63 63 58 52 48 44 42 42 40 38 36 35 33 32 30 29 30 31 31 31 34 34 34 34 32 29 30 35 38 41 41 40 41 43 43 45 48 49 52 56 54 49 46 44 41 38 43 55 67 82 101 110 105 96 88
70 72 72 70 68 66 65 66 67 65 60 56 52 48 45 44 42 39 37 36 35 33 30 30 31 32 33 33 34 36 36 35 31 28 31 35 35 37 40 41 40 42 44 47 50 53 56 57 56 53 51 47 38 34 42 60 71 75 92 107 102 93 89
74 73 72 70 68 68 68 68 68 66 62 58 54 50 46 44 42 40 38 36 35 34 32 31 31 32 34 35 36 38 38 36 31 30 35 39 37 34 35 37 38 41 44 47 51 55 57 58 59 57 54 51 49 49 55 67 81 85 88 98 99 96 97
78 76 73 69 67 67 67 67 67 67 64 60 56 51 47 44 42 40 39 37 34 34 33 32 31 32 33 36 39 40 39 38 37 36 37 39 38 35 34 35 37 40 46 49 52 55 57 58 58 55 52 55 63 65 63 66 78 89 100 118 118 107 100
83 78 75 72 69 67 67 68 67 66 64 61 57 52 47 44 42 40 38 36 34 33 33 32 31 32 33 37 41 42 42 42 43 43 41 38 37 36 37 39 40 42 48 52 52 52 55 55 53 51 52 58 64 69 68 66 65 65 67 81 104 111 114
88 81 77 73 71 68 67 68 68 67 64 61 57 52 47 44 42 39 36 34 33 33 33 31 30 30 33 37 41 43 45 45 46 46 44 40 38 39 41 43 43 44 49 53 53 53 53 51 49 48 51 56 61 65 66 62 59 60 60 55 50 65 100
Height
840 838 836 835 833 831 830 827 825 823 821 819 817 815 813 811 808 807 805 803 801 799 796 794 791 788 785 782 779 777 774 772 771 768 765 762 760 757 755 754 752 750 749 746 743 742 742 742 742 741 739 740 744 747 748 751 752 754 758 759 761 763 766
841 839 837 835 833 831 829 827 825 823 821 819 817 815 813 811 809 808 806 804 802 800 797 794 791 788 785 781 778 775 773 771 769 767 764 762 760 757 754 752 749 747 745 743 741 739 739 741 741 739 738 739 743 746 748 750 753 755 756 759 761 764 765
841 839 837 835 833 831 829 828 826 824 822 820 818 816 814 812 810 809 807 805 802 800 797 794 790 787 783 780 777 775 772 770 767 765 763 760 758 755 753 750 747 745 743 740 738 736 736 737 738 737 738 740 742 746 749 750 753 755 757 759 761 764 765
842 840 838 836 834 832 830 828 827 825 823 821 819 817 815 813 811 810 807 805 802 799 796 793 790 787 783 780 777 774 771 768 766 763 761 758 756 753 750 748 746 743 741 739 736 735 734 734 735 735 737 740 742 745 749 752 754 756 758 760 761 764 766
843 841 838 837 835 833 831 829 827 825 823 821 819 817 816 814 812 810 808 805 802 799 796 793 790 786 782 779 776 773 770 767 764 762 759 756 753 750 747 745 743 741 739 737 734 732 732 732 733 734 735 739 742 746 749 753 756 758 759 761 763 764 766
843 841 839 837 836 834 832 830 828 826 824 822 820 818 817 815 812 810 808 805 802 800 796 793 789 786 782 778 775 772 769 766 763 760 756 753 751 748 745 742 740 738 736 734 732 730 730 731 732 732 733 736 740 746 751 754 758 761 763 763 764 765 767
844 842 840 838 837 835 833 831 829 827 825 823 821 820 818 816 813 811 809 806 803 800 796 793 789 785 781 778 775 772 768 765 761 758 754 751 747 745 742 740 737 735 734 733 732 730 729 730 730 730 732 737 740 744 750 756 758 761 765 767 766 766 768
845 843 841 839 837 836 834 832 830 828 826 824 823 821 819 817 814 812 809 806 803 800 796 792 788 785 781 778 775 771 768 764 760 756 752 748 744 741 739 737 735 734 732 732 731 730 729 728 728 728 731 738 743 746 750 755 759 761 764 767 768 768 768
846 843 841 840 838 836 835 833 831 829 827 826 824 822 820 818 815 813 810 807 804 800 797 792 789 785 781 778 775 771 767 763 759 755 751 746 742 740 738 736 734 733 731 730 730 730 728 727 727 728 730 734 739 745 750 755 760 763 765 765 768 770 769
846 844 842 841 839 837 835 834 832 830 828 826 825 823 821 819 817 814 811 808 805 801 797 793 789 786 782 779 775 771 767 763 760 756 751 747 743 740 738 736 734 732 730 729 728 728 728 727 727 728 730 730 731 737 746 752 757 762 764 764 765 768 771
847 845 843 842 840 838 836 835 833 831 829 827 826 824 822 820 817 815 812 809 806 802 798 793 790 787 783 780 776 772 768 764 761 757 752 748 745 741 739 737 735 732 731 730 728 728 728 727 728 728 730 731 730 731 737 746 755 759 761 762 763 765 769
848 846 844 843 841 839 837 836 834 832 830 828 827 825 823 821 818 816 813 810 807 803 799 795 791 788 784 781 777 773 769 765 761 758 754 750 747 744 741 738 736 733 732 730 729 728 728 727 727 727 728 731 733 734 735 742 751 758 759 760 763 765 768
849 847 845 843 842 840 839 837 835 833 831 830 828 826 825 822 820 817 814 811 808 803 800 796 792 789 785 782 779 774 770 766 763 760 756 753 751 748 744 741 738 735 733 731 730 729 729 727 727 726 726 730 734 737 739 742 749 757 759 759 762 766 769
850 848 846 844 843 841 840 838 836 834 833 831 830 828 826 824 821 819 816 813 809 805 802 798 794 791 787 784 780 776 772 769 766 762 759 756 753 750 748 744 741 738 735 732 731 730 729 728 728 728 727 730 735 739 741 744 749 755 761 762 763 767 770
851 849 847 845 844 843 841 839 837 836 834 833 831 829 827 825 822 820 817 814 811 807 803 800 796 793 789 786 782 778 775 772 769 765 761 758 755 752 750 747 744 742 738 735 733 732 731 729 730 731 731 733 737 740 742 745 749 754 760 764 765 767 770
852 850 848 847 845 844 842 840 838 837 836 834 833 831 829 826 824 821 818 816 812 809 805 801 798 794 791 788 784 781 778 775 772 769 765 761 758 755 752 750 747 745 742 738 736 734 733 732 731 732 734 735 738 742 745 746 748 753 759 764 766 768 770
853 851 849 848 847 845 843 841 840 838 837 836 834 832 830 828 825 823 820 817 814 811 807 803 799 796 793 790 788 785 782 778 775 773 769 765 762 759 756 753 750 748 745 741 739 737 736 735 734 733 735 737 740 743 746 747 749 753 758 763 766 768 769
854 852 851 850 848 846 845 843 841 840 838 837 835 834 831 829 826 824 822 820 817 813 809 805 801 798 795 792 790 787 784 781 778 775 772 768 765 762 760 757 754 750 747 744 742 740 738 737 737 736 737 739 742 744 747 749 751 754 758 762 766 768 770
856 854 852 851 849 848 846 844 843 841 840 838 837 835 833 831 828 826 824 822 819 815 811 807 803 800 797 794 791 789 786 783 781 778 774 771 768 765 762 760 757 754 751 748 745 742 740 739 739 740 740 742 744 746 749 752 754 756 760 763 766 768 770
857 855 854 852 851 849 847 846 844 843 841 840 838 837 834 833 831 828 826 823 820 816 812 809 805 803 800 797 794 791 789 785 783 780 777 774 771 768 765 762 760 757 754 751 748 744 742 742 742 743 744 746 747 749 751 754 756 759 762 765 767 768 770
858 857 856 854 852 850 849 847 846 844 843 841 840 839 836 834 832 830 827 824 821 818 814 810 808 806 803 800 797 794 791 788 785 782 779 777 774 771 768 765 763 760 757 754 751 748 746 745 745 746 747 749 750 752 754 756 758 761 764 766 768 769 770
860 858 857 855 853 852 850 849 847 846 844 843 842 840 838 836 833 831 829 826 823 820 816 813 812 810 806 802 799 797 794 791 788 785 782 779 777 774 771 768 765 763 760 757 755 752 750 749 749 750 751 752 753 754 756 758 760 762 764 766 768 769 770
861 859 857 856 855 853 852 851 849 848 846 845 843 842 840 837 834 832 830 828 825 822 819 817 816 812 808 805 802 799 796 794 791 788 785 782 780 777 774 771 768 766 763 760 758 755 754 753 753 753 755 756 756 757 758 759 761 763 765 766 767 769 770
862 860 858 857 856 855 854 852 851 849 848 846 845 843 841 838 836 834 832 830 827 824 822 820 817 814 810 807 804 801 799 797 794 791 789 786 784 781 778 775 771 769 766 763 761 759 758 758 757 757 757 758 759 759 760 761 762 764 766 767 768 769 770
862 860 859 858 857 856 855 854 852 851 849 848 847 844 842 840 838 836 834 832 830 827 825 822 819 816 812 809 806 804 801 799 797 795 792 790 787 785 782 779 775 772 770 768 765 763 762 762 761 760 760 760 760 761 762 763 764 765 767 768 769 770 771
863 861 860 859 859 857 856 855 854 853 851 850 848 846 844 842 840 838 836 834 832 829 827 824 821 818 815 811 809 806 803 802 800 798 795 792 790 788 785 782 778 775 773 771 770 768 767 766 765 764 763 762 762 763 763 764 765 766 768 768 769 771 771
863 863 861 861 860 858 858 857 856 854 853 851 849 847 846 844 841 840 838 836 834 831 829 826 823 820 817 813 811 808 806 804 802 801 798 795 793 791 788 786 782 780 777 776 775 773 772 770 769 768 767 765 764 765 765 765 766 767 769 770 771 771 773
865 864 863 862 861 860 859 858 857 856 854 853 851 850 848 846 844 842 840 838 836 833 831 828 824 821 818 815 813 810 808 806 805 803 801 798 795 793 791 789 786 784 782 780 780 778 776 774 772 771 770 768 768 768 768 768 768 769 771 772 773 773 774
866 865 864 863 862 861 861 859 859 858 856 854 853 851 850 848 846 844 842 840 838 835 833 830 826 823 820 817 814 812 810 808 807 806 804 801 798 796 794 792 789 788 786 785 783 782 780 778 776 774 773 773 772 772 771 771 772 773 774 775 775 776 777
867 866 865 864 863 863 862 861 860 859 857 856 854 853 852 850 848 846 844 842 840 838 835 832 829 825 822 819 816 814 812 811 810 808 806 805 802 800 799 797 794 791 789 788 787 785 782 780 779 778 777 776 776 775 775 775 776 777 778 778 778 778 778
868 867 866 865 865 864 863 862 861 860 859 858 857 856 854 852 850 848 846 844 843 841 838 835 832 828 824 821 818 816 814 813 811 810 809 807 806 804 803 801 798 795 793 792 791 788 785 783 782 781 780 779 779 778 779 779 779 780 780 780 781 780 780
870 868 868 867 867 866 865 864 863 862 861 859 858 857 855 854 852 850 848 847 844 842 840 838 834 831 828 824 821 819 817 815 814 813 811 810 808 806 805 803 801 799 797 795 793 791 788 786 785 784 783 782 781 781 782 782 782 782 782 782 783 782 782
872 870 870 869 869 868 867 866 865 864 862 861 860 859 857 855 854 852 850 848 846 844 842 840 837 834 831 828 825 822 820 818 817 816 815 813 811 809 807 806 804 802 800 798 796 794 791 789 788 787 785 784 784 784 784 783 783 783 783 783 784 784 784
874 873 872 872 870 870 869 868 867 865 864 863 861 860 859 858 856 854 853 851 849 847 845 843 840 837 834 831 828 825 823 822 821 820 817 815 814 812 811 810 809 807 804 802 799 796 794 793 791 789 789 789 788 787 786 785 784 784 784 784 785 785 785
875 875 875 873 872 872 871 870 869 867 866 865 863 862 861 860 858 856 854 853 851 849 848 845 842 839 837 834 831 829 826 825 824 822 819 817 816 815 814 813 812 811 808 805 802 799 797 795 793 792 792 791 789 787 787 786 785 785 785 785 786 786 786
877 877 876 875 874 874 873 871 870 869 868 866 865 864 863 861 860 858 856 855 853 851 850 848 845 842 840 837 834 832 830 828 826 823 822 820 819 818 817 816 814 812 810 807 804 802 799 797 795 795 793 791 789 788 787 787 786 786 786 786 787 787 788
878 878 878 877 876 875 874 873 872 871 870 868 867 866 865 864 862 860 859 857 856 854 852 850 848 845 842 840 837 835 833 831 828 826 825 824 823 821 820 818 816 814 811 808 806 804 801 800 798 797 795 792 790 789 788 788 788 788 787 788 790 791 791